Windom, MN

8:17 PM CDT on October 16, 2017 (GMT -0500)
Windom Municipal

Weather History for KMWM - February, 2014

Change the Weather History Date:

Tuesday, February 25, 2014

  Actual Average Record
Temperature  
Mean Temperature 0 °F -  
Max Temperature 8 °F 33 °F 84 °F (1999)
Min Temperature -9 °F 13 °F -13 °F (1993)
Degree Days  
Heating Degree Days 66    
Moisture  
Dew Point -6 °F    
Average Humidity 77    
Maximum Humidity 92    
Minimum Humidity 66    
Precipitation  
Precipitation 0.00 in - - ()
Sea Level Pressure  
Sea Level Pressure 30.32 in    
Wind  
Wind Speed 14 mph (WNW)    
Max Wind Speed 28 mph    
Max Gust Speed 30 mph    
Visibility 8 miles    
Events Snow    
Averages and records for this station are not official NWS values.
T = Trace of Precipitation, MM = Missing Value Source: NWS Daily Summary

Daily Weather History Graph

Daily Weather History Graph

Search for Another Location

Airport or City:

Trip Planner

Search our weather history database for the weather conditions in past years. The results will help you decide how hot, cold, wet, or windy it might be!

Date:

Astronomy

Feb. 25, 2014 Rise Set
Actual Time 7:03 AM CST 6:03 PM CST
Civil Twilight 6:34 AM CST 6:32 PM CST
Nautical Twilight 6:01 AM CST 7:06 PM CST
Astronomical Twilight 5:28 AM CST 7:39 PM CST
Moon 4:05 AM CST (2/25) 2:05 PM CST (2/25)
Length of Visible Light 11h 58m
Length of Day
10h 59m
Waning Crescent, 18% of the Moon is Illuminated
Feb 25
Waning Crescent
Mar 1
New
Mar 8
First Quarter
Mar 16
Full
Mar 23
Last Quarter

Hourly Weather History & Observations

Time (CST) Temp. Windchill Dew Point Humidity Pressure Visibility Wind Dir Wind Speed Gust Speed Precip Events Conditions
12:12 AM 3.2 °F -15.3 °F -0.4 °F 85% 30.33 in 4.0 mi NW 15.0 mph - N/A Snow Light Snow
12:33 AM 1.4 °F -16.9 °F -0.4 °F 92% 30.33 in 10.0 mi NW 13.8 mph - N/A   Overcast
12:52 AM 1.4 °F -16.9 °F -2.2 °F 85% 30.33 in 10.0 mi NW 13.8 mph - N/A   Overcast
1:13 AM 1.4 °F -18.2 °F -2.2 °F 85% 30.33 in 7.0 mi NW 16.1 mph - N/A   Overcast
1:32 AM 1.4 °F -17.6 °F -2.2 °F 85% 30.33 in 4.0 mi NW 15.0 mph - N/A Snow Light Snow
1:52 AM 1.4 °F -18.2 °F -2.2 °F 85% 30.34 in 4.0 mi NW 16.1 mph - N/A Snow Light Snow
2:13 AM -0.4 °F -22.3 °F -4.0 °F 85% 30.33 in 10.0 mi NW 19.6 mph - N/A   Mostly Cloudy
2:32 AM -0.4 °F -19.9 °F -5.8 °F 78% 30.33 in 10.0 mi NW 15.0 mph - N/A   Scattered Clouds
2:52 AM -2.2 °F -18.9 °F -5.8 °F 85% 30.34 in 10.0 mi NW 10.4 mph - N/A   Clear
3:13 AM -2.2 °F -20.7 °F -5.8 °F 85% 30.32 in 10.0 mi NW 12.7 mph - N/A   Clear
3:32 AM -2.2 °F -18.9 °F -5.8 °F 85% 30.32 in 10.0 mi NW 10.4 mph - N/A   Clear
3:52 AM -2.2 °F -19.9 °F -7.6 °F 78% 30.33 in 10.0 mi WNW 11.5 mph - N/A   Clear
4:13 AM -4.0 °F -20.2 °F -9.4 °F 78% 30.33 in 10.0 mi WNW 9.2 mph - N/A   Clear
4:32 AM -4.0 °F -19.0 °F -9.4 °F 78% 30.32 in 10.0 mi WNW 8.1 mph - N/A   Clear
4:52 AM -5.8 °F -21.2 °F -11.2 °F 77% 30.32 in 10.0 mi West 8.1 mph - N/A   Clear
5:13 AM -5.8 °F -18.4 °F -9.4 °F 84% 30.32 in 10.0 mi West 5.8 mph - N/A   Clear
5:32 AM -7.6 °F -22.1 °F -11.2 °F 84% 30.30 in 10.0 mi West 6.9 mph - N/A   Clear
5:52 AM -7.6 °F -22.1 °F -11.2 °F 84% 30.30 in 10.0 mi West 6.9 mph - N/A   Clear
6:13 AM -7.6 °F -22.1 °F -11.2 °F 84% 30.30 in 10.0 mi West 6.9 mph - N/A   Clear
6:32 AM -7.6 °F -20.6 °F -11.2 °F 84% 30.30 in 10.0 mi West 5.8 mph - N/A   Clear
6:52 AM -9.4 °F -26.8 °F -13.0 °F 84% 30.31 in 10.0 mi West 9.2 mph - N/A   Clear
7:13 AM -7.6 °F -24.6 °F -13.0 °F 77% 30.31 in 10.0 mi West 9.2 mph - N/A   Clear
7:32 AM -7.6 °F -24.6 °F -11.2 °F 84% 30.30 in 10.0 mi West 9.2 mph - N/A   Clear
7:52 AM -5.8 °F -22.4 °F -11.2 °F 77% 30.31 in 10.0 mi West 9.2 mph - N/A   Clear
8:13 AM -5.8 °F -22.4 °F -11.2 °F 77% 30.31 in 10.0 mi West 9.2 mph - N/A   Clear
8:32 AM -5.8 °F -21.2 °F -11.2 °F 77% 30.31 in 10.0 mi WSW 8.1 mph - N/A   Clear
8:52 AM -2.2 °F -18.9 °F -11.2 °F 66% 30.32 in 10.0 mi WSW 10.4 mph - N/A   Clear
9:13 AM -2.2 °F -18.9 °F -9.4 °F 71% 30.32 in 10.0 mi WSW 10.4 mph - N/A   Clear
9:32 AM -2.2 °F -21.5 °F -9.4 °F 71% 30.32 in 10.0 mi WSW 13.8 mph - N/A   Clear
9:52 AM -0.4 °F -19.2 °F -7.6 °F 72% 30.32 in 10.0 mi WSW 13.8 mph - N/A   Clear
10:13 AM 1.4 °F -16.1 °F -5.8 °F 72% 30.31 in 10.0 mi West 12.7 mph - N/A   Clear
10:32 AM 1.4 °F -18.8 °F -5.8 °F 72% 30.32 in 10.0 mi West 17.3 mph - N/A   Clear
10:52 AM 3.2 °F -17.1 °F -5.8 °F 66% 30.32 in 10.0 mi West 18.4 mph - N/A   Clear
11:13 AM 3.2 °F -16.5 °F -4.0 °F 72% 30.32 in 10.0 mi West 17.3 mph - N/A   Clear
11:32 AM 5.0 °F -15.2 °F -2.2 °F 72% 30.31 in 7.0 mi West 19.6 mph - N/A   Clear
11:52 AM 5.0 °F -15.2 °F -2.2 °F 72% 30.30 in 5.0 mi West 19.6 mph - N/A   Haze
12:13 PM 6.8 °F -12.4 °F -2.2 °F 67% 30.30 in 5.0 mi West 18.4 mph - N/A   Haze
12:32 PM 6.8 °F -13.4 °F -2.2 °F 67% 30.29 in 7.0 mi West 20.7 mph - N/A   Clear
12:52 PM 6.8 °F -13.8 °F -2.2 °F 67% 30.29 in 4.0 mi West 21.9 mph - N/A   Haze
1:13 PM 6.8 °F -13.4 °F -0.4 °F 72% 30.29 in 7.0 mi West 20.7 mph - N/A   Clear
1:32 PM 8.6 °F -11.0 °F -0.4 °F 67% 30.28 in 7.0 mi WNW 20.7 mph - N/A   Clear
1:53 PM 8.6 °F -12.3 °F -0.4 °F 67% 30.27 in 5.0 mi WNW 24.2 mph 27.6 mph N/A   Haze
2:13 PM 8.6 °F -11.4 °F -0.4 °F 67% 30.27 in 7.0 mi West 21.9 mph - N/A   Clear
2:32 PM 8.6 °F -11.9 °F 1.4 °F 73% 30.26 in 2.5 mi West 23.0 mph - N/A   Haze
2:53 PM 8.6 °F -11.4 °F 1.4 °F 73% 30.27 in 3.0 mi WNW 21.9 mph 27.6 mph N/A   Haze
3:13 PM 8.6 °F -11.9 °F -0.4 °F 67% 30.28 in 2.0 mi NW 23.0 mph - N/A   Haze
3:32 PM 6.8 °F -13.8 °F 1.4 °F 79% 30.29 in 0.5 mi NW 21.9 mph 27.6 mph N/A Snow Light Snow
3:53 PM 6.8 °F -14.7 °F 1.4 °F 79% 30.29 in 0.8 mi NW 24.2 mph 27.6 mph N/A   Haze
4:13 PM 6.8 °F -15.9 °F -0.4 °F 72% 30.29 in 1.5 mi NW 27.6 mph - N/A   Haze
4:32 PM 3.2 °F -19.5 °F -0.4 °F 85% 30.30 in 1.0 mi NW 24.2 mph 29.9 mph N/A   Haze
4:53 PM 3.2 °F -19.0 °F -2.2 °F 78% 30.31 in 3.0 mi NW 23.0 mph - N/A   Haze
5:13 PM 3.2 °F -17.1 °F -4.0 °F 72% 30.32 in 7.0 mi NW 18.4 mph - N/A   Scattered Clouds
5:32 PM 1.4 °F -18.2 °F -4.0 °F 78% 30.32 in 7.0 mi NW 16.1 mph - N/A   Clear
5:53 PM 1.4 °F -17.6 °F -5.8 °F 72% 30.33 in 10.0 mi NW 15.0 mph - N/A   Clear
6:13 PM 1.4 °F -19.4 °F -5.8 °F 72% 30.34 in 10.0 mi NW 18.4 mph - N/A   Clear
6:32 PM -0.4 °F -20.5 °F -5.8 °F 78% 30.34 in 10.0 mi NW 16.1 mph - N/A   Clear
6:53 PM -0.4 °F -18.4 °F -7.6 °F 72% 30.35 in 10.0 mi NW 12.7 mph - N/A   Clear
7:13 PM -0.4 °F -19.9 °F -7.6 °F 72% 30.35 in 10.0 mi NW 15.0 mph - N/A   Clear
7:32 PM -0.4 °F -19.2 °F -5.8 °F 78% 30.36 in 10.0 mi NW 13.8 mph - N/A   Clear
7:53 PM -2.2 °F -20.7 °F -7.6 °F 78% 30.36 in 10.0 mi NW 12.7 mph - N/A   Clear
8:12 PM -2.2 °F -20.7 °F -7.6 °F 78% 30.37 in 10.0 mi NW 12.7 mph - N/A   Clear
8:33 PM -2.2 °F -18.9 °F -7.6 °F 78% 30.37 in 10.0 mi NW 10.4 mph - N/A   Clear
8:53 PM -2.2 °F -18.0 °F -7.6 °F 78% 30.37 in 10.0 mi NW 9.2 mph - N/A   Clear
9:12 PM -2.2 °F -18.0 °F -7.6 °F 78% 30.37 in 10.0 mi WNW 9.2 mph - N/A   Clear
9:32 PM -2.2 °F -18.9 °F -7.6 °F 78% 30.38 in 10.0 mi NW 10.4 mph - N/A   Clear
9:53 PM -2.2 °F -18.9 °F -7.6 °F 78% 30.37 in 10.0 mi WNW 10.4 mph - N/A   Scattered Clouds
10:12 PM -5.8 °F -19.9 °F -9.4 °F 84% 30.38 in 10.0 mi West 6.9 mph - N/A   Scattered Clouds
10:32 PM -5.8 °F -23.4 °F -9.4 °F 84% 30.37 in 10.0 mi WNW 10.4 mph - N/A   Clear
10:53 PM -5.8 °F -23.4 °F -9.4 °F 84% 30.37 in 10.0 mi West 10.4 mph - N/A   Clear
11:12 PM -5.8 °F -22.4 °F -9.4 °F 84% 30.37 in 10.0 mi West 9.2 mph - N/A   Clear
11:32 PM -5.8 °F -23.4 °F -9.4 °F 84% 30.36 in 10.0 mi WNW 10.4 mph - N/A   Clear
11:52 PM -7.6 °F -24.6 °F -11.2 °F 84% 30.35 in 10.0 mi West 9.2 mph - N/A   Clear